Current weather by "City, St" or "zip code"  
 

Current Conditions: Bennington Morse State Airport, VT

Overcast


28.0 F

Last Updated on Nov 29 2023, 10:54 pm EST
Humidity: 53%
Wind Speed: SW 3.5 mph
Barometer 29.99 in
Dewpoint: 12.9 F
Visibility: 10.00 mi
Precip: --
Heat Index: NA
Wind Chill: NA
Current conditions at:

Bennington Morse State Airport, VT (KDDH)

Lat: 42.89355 Lon: 73.2486

Local Radar Image active severe weather and emergency alerts image image weather storm and storm spotter reports image weather observation monitoring service image
Local
Radar
Active
Alerts
Storm Reports Obs
Monitoring

Sign-up For Email & Text Message Weather Alert Notification Services



Advertise Here

Observation History for Bennington Morse State Airport, VT


Time Wind
(mph)
Vis
(mi)
Weather Precip (in) Temperature (F) Relative
Humidity
Wind
Chill
(F)
Heat
Index
(F)
Pressure
Air Dwpt altimeter
(in)
sea level
(mb)
Rmks
10:54 pm EST SW 3.5 10.00 Overcast -- 28.0 12.9 53% NA NA 29.99 1016.5
8:54 pm EST SW 3.5 10.00 Fair -- 27.0 14.0 58% NA NA 29.96 1015.4
7:54 pm EST SW 3.5 10.00 Fair -- 27.0 12.9 55% NA NA 29.95 1015.3
6:54 pm EST SE 4.6 10.00 Fair -- 28.0 15.1 58% 23 NA 29.94 1015.1
4:54 pm EST S 4.6 10.00 Overcast -- 30.0 16.0 56% 25 NA 29.94 1015.0
3:54 pm EST W 9.2 10.00 Mostly Cloudy -- 31.0 14.0 49% 23 NA 29.94 1014.7
2:54 pm EST SW 5.8 10.00 A Few Clouds -- 31.0 14.0 49% 25 NA 29.93 1014.6
1:54 pm EST W 3.5 10.00 Overcast -- 31.0 14.0 49% NA NA 29.94 1014.8
12:54 pm EST 3.5 10.00 Mostly Cloudy -- 31.0 15.1 52% NA NA 29.96 1015.6
10:54 am EST 10.00 Overcast -- 29.0 15.1 56% NA NA 30.00 1016.7
9:54 am EST W 11.5 G 18.4 10.00 Mostly Cloudy -- 28.0 15.1 58% 18 NA 30.00 1016.9
8:54 am EST 3.5 10.00 Overcast -- 26.0 17.1 69% NA NA 29.99 1016.5
7:54 am EST N 0.0 8.00 Overcast -- 22.0 15.1 75% NA NA 29.99 1016.6
3:54 am EST SW 6.9 10.00 Fair -- 22.0 12.0 66% 14 NA 29.95 1015.3
1:54 am EST SW 6.9 10.00 Fair -- 24.0 17.1 75% 16 NA 29.92 1014.2

Regional Weather Observation


Bennington Morse State Airport, VT (KDDH)

Overcast
28.0 F

Schenectady Airport, NY (KSCH)

Overcast
27.0 F

Albany International Airport, NY (KALB)

Overcast
30.0 F

North Adams Harriman-and-West Airport, MA (KAQW)

Overcast
22.0 F

Pittsfield Municipal Airport, MA (KPSF)

Overcast
26.0 F

Rutland-Southern Vermont Regional Airport, VT (KRUT)

Overcast
25.0 F

Advertise Here


Advertise Here